De Queen, AR

7:29 PM CDT on October 18, 2017 (GMT -0500)
Helms Sevier County

Weather History for KDEQ - May, 2012

Change the Weather History Date:

Thursday, May 17, 2012

  Actual Average Record
Temperature  
Mean Temperature 71 °F 70 °F  
Max Temperature 88 °F 81 °F 92 °F (1956)
Min Temperature 54 °F 59 °F 40 °F (1945)
Degree Days  
Heating Degree Days 0 0  
Month to date heating degree days 0 21  
Since 1 July heating degree days 2414 3042  
Cooling Degree Days 6 5  
Month to date cooling degree days 105 69  
Year to date cooling degree days 226 116  
Growing Degree Days 21 (Base 50)    
Moisture  
Dew Point 59 °F    
Average Humidity 68    
Maximum Humidity 100    
Minimum Humidity 35    
Precipitation  
Precipitation 0.00 in 0.17 in 4.70 in (1968)
Month to date precipitation 0.76 3.56  
Year to date precipitation 13.26 19.13  
Snow  
Snow 0.00 in - - ()
Month to date snowfall 0.0  
Since 1 July snowfall 2.3  
Snow Depth 0.00 in    
Sea Level Pressure  
Sea Level Pressure 29.97 in    
Wind  
Wind Speed 1 mph (SSW)    
Max Wind Speed 10 mph    
Max Gust Speed 13 mph    
Visibility 4 miles    
Events Fog    
T = Trace of Precipitation, MM = Missing Value Source: NWS Daily Summary

Daily Weather History Graph

Daily Weather History Graph

Search for Another Location

Airport or City:

Trip Planner

Search our weather history database for the weather conditions in past years. The results will help you decide how hot, cold, wet, or windy it might be!

Date:

Astronomy

May. 17, 2012 Rise Set
Actual Time 6:14 AM CDT 8:14 PM CDT
Civil Twilight 5:46 AM CDT 8:42 PM CDT
Nautical Twilight 5:12 AM CDT 9:15 PM CDT
Astronomical Twilight 4:36 AM CDT 9:52 PM CDT
Moon 4:05 AM CDT (5/17) 5:32 PM CDT (5/17)
Length of Visible Light 14h 55m
Length of Day
13h 59m
Waning Crescent, 9% of the Moon is Illuminated
May 17
Waning Crescent
May 20
New
May 28
First Quarter
Jun 4
Full
Jun 11
Last Quarter

Hourly Weather History & Observations

Time (CDT) Temp. Heat Index Dew Point Humidity Pressure Visibility Wind Dir Wind Speed Gust Speed Precip Events Conditions
12:10 AM 60.8 °F - 60.8 °F 100% 29.99 in 0.5 mi Calm Calm - N/A Fog Fog
12:36 AM 60.8 °F - 60.8 °F 100% 29.99 in 1.0 mi Calm Calm - N/A   Clear
12:43 AM 60.8 °F - 60.8 °F 100% 29.99 in 0.5 mi Calm Calm - N/A Fog Fog
12:53 AM 60.1 °F - 60.1 °F 100% 29.97 in 0.8 mi Calm Calm - N/A   Clear
1:02 AM 59.0 °F - 59.0 °F 100% 29.99 in 1.5 mi Calm Calm - N/A   Clear
1:13 AM 60.8 °F - 59.0 °F 94% 29.98 in 0.5 mi Calm Calm - N/A Fog Fog
1:34 AM 60.8 °F - 59.0 °F 94% 29.98 in 1.2 mi Calm Calm - N/A   Clear
1:41 AM 59.0 °F - 59.0 °F 100% 29.98 in 0.2 mi Calm Calm - N/A Fog Fog
1:53 AM 59.0 °F - 57.9 °F 96% 29.96 in 0.2 mi Calm Calm - N/A Fog Fog
2:21 AM 57.2 °F - 57.2 °F 100% 29.98 in 0.8 mi Calm Calm - N/A   Mist
2:28 AM 57.2 °F - 57.2 °F 100% 29.97 in 1.0 mi Calm Calm - N/A   Mist
2:37 AM 57.2 °F - 57.2 °F 100% 29.97 in 0.2 mi Calm Calm - N/A Fog Fog
2:49 AM 59.0 °F - 57.2 °F 94% 29.97 in 1.0 mi Calm Calm - N/A   Mist
2:53 AM 59.0 °F - 57.9 °F 96% 29.96 in 2.0 mi Calm Calm - N/A   Scattered Clouds
3:02 AM 57.2 °F - 57.2 °F 100% 29.97 in 1.0 mi Calm Calm - N/A   Mist
3:09 AM 57.2 °F - 57.2 °F 100% 29.97 in 0.5 mi Calm Calm - N/A Fog Fog
3:17 AM 57.2 °F - 57.2 °F 100% 29.97 in 0.2 mi Calm Calm - N/A Fog Fog
3:43 AM 57.2 °F - 55.4 °F 94% 29.98 in 0.5 mi Calm Calm - N/A Fog Fog
3:53 AM 57.0 °F - 55.9 °F 96% 29.96 in 0.8 mi Calm Calm - N/A   Mist
4:06 AM 55.4 °F - 55.4 °F 100% 29.98 in 0.2 mi Calm Calm - N/A Fog Fog
4:27 AM 57.2 °F - 55.4 °F 94% 29.98 in 0.5 mi Calm Calm - N/A Fog Fog
4:41 AM 57.2 °F - 55.4 °F 94% 29.98 in 0.2 mi Calm Calm - N/A Fog Fog
4:53 AM 55.9 °F - 55.9 °F 100% 29.97 in 0.2 mi Calm Calm - N/A Fog Fog
5:51 AM 55.4 °F - 55.4 °F 100% 29.99 in 0.5 mi Calm Calm - N/A Fog Fog
5:53 AM 55.0 °F - 55.0 °F 100% 29.98 in 0.5 mi Calm Calm - N/A Fog Fog
6:11 AM 55.4 °F - 55.4 °F 100% 29.99 in 0.2 mi Calm Calm - N/A Fog Fog
6:53 AM 55.0 °F - 55.0 °F 100% 29.99 in 0.2 mi Calm Calm - N/A Fog Fog
7:24 AM 57.2 °F - 57.2 °F 100% 30.01 in 0.5 mi Calm Calm - N/A Fog Fog
7:35 AM 59.0 °F - 57.2 °F 94% 30.01 in 2.5 mi Calm Calm - N/A   Clear
7:43 AM 59.0 °F - 59.0 °F 100% 30.01 in 3.0 mi Calm Calm - N/A   Clear
7:53 AM 61.0 °F - 60.1 °F 97% 30.00 in 3.0 mi Calm Calm - N/A   Clear
8:53 AM 69.1 °F - 60.1 °F 73% 30.01 in 10.0 mi Calm Calm - N/A   Clear
9:53 AM 77.0 °F - 61.0 °F 58% 30.01 in 10.0 mi Calm Calm - N/A   Clear
10:53 AM 82.0 °F 83.0 °F 62.1 °F 51% 30.00 in 9.0 mi Calm Calm - N/A   Clear
11:53 AM 84.0 °F 84.0 °F 60.1 °F 44% 29.99 in 10.0 mi Variable 4.6 mph - N/A   Clear
12:53 PM 86.0 °F 84.9 °F 57.0 °F 37% 29.97 in 10.0 mi SSW 4.6 mph - N/A   Clear
1:53 PM 86.0 °F 84.9 °F 57.0 °F 37% 29.96 in 10.0 mi SW 6.9 mph - N/A   Clear
2:53 PM 87.1 °F 86.5 °F 59.0 °F 39% 29.94 in 10.0 mi Calm Calm - N/A   Clear
3:53 PM 87.1 °F 86.1 °F 57.9 °F 37% 29.92 in 10.0 mi WSW 5.8 mph - N/A   Clear
4:53 PM 87.1 °F 85.9 °F 57.0 °F 36% 29.90 in 10.0 mi SSE 5.8 mph - N/A   Clear
5:53 PM 86.0 °F 84.7 °F 55.9 °F 36% 29.89 in 10.0 mi South 3.5 mph - N/A   Clear
6:53 PM 84.0 °F 83.5 °F 57.9 °F 41% 29.88 in 10.0 mi South 3.5 mph - N/A   Clear
7:53 PM 78.1 °F - 68.0 °F 71% 29.88 in 9.0 mi Calm Calm - N/A   Clear
8:53 PM 71.1 °F - 66.9 °F 87% 29.89 in 7.0 mi Calm Calm - N/A   Clear
9:53 PM 68.0 °F - 64.9 °F 90% 29.90 in 6.0 mi Calm Calm - N/A   Clear
10:53 PM 64.9 °F - 63.0 °F 93% 29.91 in 3.0 mi Calm Calm - N/A   Clear
11:53 PM 64.0 °F - 63.0 °F 96% 29.91 in 2.5 mi Calm Calm - N/A   Clear